Flag for Belgium Weather past 2 weeks in Mechelen, Belgium

Now
25 °F

Sunny.


Feels Like: 19 °F
Forecast: 25 / 40 °F
Wind: 5 mph from Northeast

Location: Brussels National Airport

Current Time: Dec 28, 2014 at 4:51:21 PM

Latest Report: Dec 28, 2014 at 4:20 PM


Visibility: 10 mi

Pressure: 30.45 "Hg

Humidity: 80%

Dew point: 19 °F

Location of MechelenLocation

Historic Weather in Mechelen — Graph

°F

Mechelen temperature yesterday

Maximum temperature yesterday: 39 °F (at 7:50 AM)
Minimum temperature yesterday: 28 °F (at 11:50 PM)
Average temperature yesterday: 34 °F

Past Weeks' High & Low Weather Summary

 TemperatureHumidityPressure
High54 °F (Dec 18, 10:20 AM)100% (Dec 16, 8:50 AM)30.45 "Hg (Dec 16, 8:50 AM)
Low23 °F (Dec 28, 7:50 AM)64% (Dec 28, 1:20 PM)29.30 "Hg (Dec 27, 6:20 AM)
Average43 °F84%30.03 "Hg
* Reported Dec 13 3:20 PM — Dec 28 3:50 PM, Mechelen, Weather by CustomWeather, © 2014

Note: Actual official high and low records may vary slightly from our data, if they occured in-between our weather recording intervals... More about our weather records

Advertising

Mechelen weather history for previous 24 hours

 ConditionsComfort  
Time TempWeatherWind HumidityBarometerVisibility
3:50 PM
Dec 28
25 °FSunny.7 mph80%30.42 "Hg10 mi
3:20 PM27 °FSunny.7 mph74%30.42 "Hg10 mi
2:50 PM27 °FSunny.8 mph69%30.42 "Hg10 mi
2:20 PM27 °FSunny.8 mph64%30.39 "Hg10 mi
1:50 PM27 °FSunny.12 mph69%30.39 "Hg10 mi
1:20 PM27 °FSunny.12 mph64%30.36 "Hg10 mi
12:50 PM25 °FSunny.10 mph74%30.36 "Hg10 mi
12:20 PM25 °FSunny.12 mph74%30.36 "Hg10 mi
11:50 AM25 °FSunny.13 mph74%30.33 "Hg10 mi
11:20 AM25 °FSunny.13 mph74%30.30 "Hg10 mi
10:50 AM25 °FSunny.15 mph74%30.27 "Hg10 mi
10:20 AM23 °FSunny.14 mph80%30.27 "Hg10 mi
9:50 AM23 °FSunny.12 mph80%30.24 "Hg10 mi
9:20 AM23 °FSunny.12 mph80%30.21 "Hg10 mi
8:50 AM23 °FSunny.12 mph74%30.18 "Hg10 mi
8:20 AM23 °FPassing clouds.10 mph80%30.15 "HgN/A
7:50 AM23 °FPassing clouds.10 mph80%30.12 "HgN/A
7:20 AM25 °FPassing clouds.15 mph74%30.09 "HgN/A
6:50 AM25 °FPassing clouds.17 mph80%30.04 "HgN/A
6:20 AM25 °FPassing clouds.15 mph80%30.04 "HgN/A
5:50 AM25 °FPassing clouds.18 mph80%30.01 "HgN/A
5:20 AM27 °FPassing clouds.15 mph74%29.98 "HgN/A
4:20 AM27 °FPassing clouds.15 mph80%29.95 "HgN/A
3:50 AM27 °FPassing clouds.17 mph80%29.92 "HgN/A
3:20 AM27 °FPassing clouds.17 mph80%29.89 "HgN/A
2:50 AM27 °FPassing clouds.16 mph80%29.86 "HgN/A
2:20 AM27 °FPassing clouds.17 mph80%29.83 "HgN/A
1:50 AM28 °FClear.15 mph74%29.80 "Hg10 mi
1:20 AM28 °FClear.14 mph80%29.77 "Hg10 mi
12:50 AM28 °FClear.14 mph80%29.77 "Hg10 mi
12:20 AM28 °FClear.15 mph80%29.74 "Hg10 mi
11:50 PM
Dec 27
28 °FClear.15 mph80%29.71 "Hg10 mi
11:20 PM30 °FClear.15 mph80%29.71 "Hg10 mi
10:50 PM30 °FPassing clouds.15 mph80%29.68 "HgN/A
10:20 PM30 °FLight snow. Passing clouds.15 mph86%29.65 "Hg4 mi
9:50 PM32 °FLight snow. Passing clouds.14 mph87%29.65 "Hg2 mi
9:20 PM32 °FLight snow. Passing clouds.15 mph87%29.62 "Hg2 mi
8:50 PM32 °FLight snow. Passing clouds.14 mph87%29.59 "Hg1 mi
8:20 PM32 °FLight snow. Passing clouds.12 mph87%29.59 "Hg1 mi
7:50 PM32 °FLight snow. Partly cloudy.12 mph87%29.56 "Hg1 mi
7:20 PM32 °FLight snow. Partly cloudy.13 mph87%29.56 "Hg1 mi
6:50 PM32 °FLight snow. Partly cloudy.12 mph93%29.53 "Hg1 mi
6:20 PM32 °FLight snow. Partly cloudy.14 mph87%29.50 "Hg1 mi
5:50 PM32 °FLight snow. Partly cloudy.13 mph87%29.50 "Hg2 mi
5:20 PM32 °FSnow. Partly cloudy.12 mph93%29.47 "Hg1 mi
4:50 PM32 °FSnow. Partly cloudy.14 mph93%29.47 "Hg1 mi
4:20 PM32 °FSnow. Broken clouds.13 mph87%29.45 "Hg1 mi
Weather by CustomWeather, © 2014

See weather overviewHow to use our weather pages